Location: Newark
(47.5833°N, 8.1500°E)
Time: 08:21:06
(UTC+00:00)

Tiros 1 despin weight - Pass Details

Date: 29 October 2020
Orbit: 593 x 642 km, 48.2° (Epoch: 26 November)

Event Time Altitude Azimuth Distance (km) Brightness Sun altitude
Rises 00:24:36 0° 241° (WSW) 2,860 - -52.7°
Reaches altitude 10° 00:26:56 10° 238° (WSW) 1,950 - -52.5°
Maximum altitude 00:31:20 61° 159° (SSE) 681 - -52.1°
Drops below altitude 10° 00:35:43 10° 79° (ENE) 1,934 - -51.7°
Sets 00:38:00 0° 76° (ENE) 2,833 - -51.5°
